sat.trackr.live / text

‹ back to catalog

STARLINK-11678 [DTC]

NORAD 64326 · 2025-124K

PAYLOAD ACTIVE UNKNOWN

§ Identity

Operator
Country
US
Launch date
2025-06-10
Launch site
AFETR
Launch vehicle
Mass (kg)
RCS (m²)

Purposes: comms

External: N2YO · Heavens-Above · Gunter

§ Orbital elements

Epoch: 2026-06-25T05:30:42.742368Z

Period
89.11 min
Inclination
42.9867°
Eccentricity
0.0012381
Mean motion
16.15986866 rev/d
Perigee alt
222.3 km
Apogee alt
238.7 km
Semi-major
6,608.6 km
B*
6.3681e-3
RAAN
98.6453°
Arg perigee
227.9206°
Mean anomaly
132.0626°
Rev number
5,977

§ Raw data

STARLINK-11678 [DTC]1 64326U 25124K   26176.22966137  .05753396  14564+0  63681-2 0  99962 64326  42.9867  98.6453 0012381 227.9206 132.0626 16.15986866 59771

JSON: /api/v1/satellites/64326 · /tle

For live sub-satellite position, see the globe view (requires WebGL).

§ Visibility from observer

Set your observer location to see the next 7 days of passes ≥ 10°. The values pass through the URL so the page stays shareable.

No JS? Fill the form by hand. The geolocation button needs JavaScript.